^^
Grace C. Lehan Memorial Weather Station Historical Data
Daily Summary for June 12, 2021 Units:  Metric    English   Both
Daily Weekly Monthly Yearly
  High: Low: Average:
Temperature: -1.8 °C -10.5 °C -5.1 °C
Dew Point: -11.3 °C -15.4 °C -13.4 °C
Humidity: 68% 38% 53%
Wind Speed: 9.3km/h 0km/h 1.6km/h
Wind Gust: 20.9km/h - -
Wind- - South
Pressure: 1027.7 hPa 1024.6 hPa -
Precipitation: 0.25 mm    
 
 
Tabular Data for June 12, 2021
Time Temperature Dew Point Pressure Wind Wind Speed Wind Gust Humidity Rainfall Rate (Hourly) solar
00:04 -5.4 °C -11.7 °C 1025.6 hPa WNW 5.1 km/h 16.1 km/h 61% 0 mm 0 W/m2
00:09 -5.4 °C -11.7 °C 1026 hPa WNW 6.6 km/h 16.1 km/h 61.6% 0 mm 0 W/m2
00:14 -5.5 °C -11.6 °C 1026 hPa WNW 6.1 km/h 16.1 km/h 62% 0 mm 0 W/m2
00:19 -5.6 °C -11.7 °C 1025.6 hPa WNW 5.8 km/h 16.1 km/h 62% 0 mm 0 W/m2
00:24 -5.6 °C -11.7 °C 1025.6 hPa WNW 4.5 km/h 16.1 km/h 62% 0 mm 0 W/m2
00:29 -5.7 °C -11.8 °C 1024.9 hPa NW 7.4 km/h 20.9 km/h 62% 0 mm 0 W/m2
00:34 -5.7 °C -11.8 °C 1024.9 hPa NW 9.3 km/h 20.9 km/h 62% 0 mm 0 W/m2
00:39 -5.8 °C -11.9 °C 1025.3 hPa NW 8.2 km/h 19.3 km/h 62% 0 mm 0 W/m2
00:44 -5.8 °C -11.9 °C 1025.3 hPa NNW 3.7 km/h 19.3 km/h 62% 0 mm 0 W/m2
00:49 -5.9 °C -12.1 °C 1025.3 hPa NNW 5 km/h 19.3 km/h 62% 0 mm 0 W/m2
00:54 -6 °C -12.1 °C 1025.3 hPa NW 5.6 km/h 19.3 km/h 62% 0 mm 0 W/m2
00:59 -6.1 °C -12.1 °C 1025.6 hPa NW 5.3 km/h 19.3 km/h 62.4% 0 mm 0 W/m2
01:04 -6.1 °C -12.1 °C 1025.6 hPa WNW 4 km/h 19.3 km/h 63% 0 mm 0 W/m2
01:09 -6.2 °C -12.1 °C 1025.6 hPa WNW 5.6 km/h 14.5 km/h 63% 0 mm 0 W/m2
01:14 -6.3 °C -12.2 °C 1026 hPa NW 3.9 km/h 14.5 km/h 63% 0 mm 0 W/m2
01:19 -6.3 °C -12.2 °C 1025.6 hPa NW 1.3 km/h 14.5 km/h 63% 0 mm 0 W/m2
01:24 -6.4 °C -12.3 °C 1025.6 hPa NW 3.9 km/h 14.5 km/h 63% 0 mm 0 W/m2
01:29 -6.6 °C -12.3 °C 1026 hPa NW 3.5 km/h 14.5 km/h 63.5% 0 mm 0 W/m2
01:34 -6.6 °C -12.3 °C 1026 hPa NW 4.3 km/h 14.5 km/h 64% 0 mm 0 W/m2
01:39 -6.7 °C -12.4 °C 1026 hPa Calm   8 km/h 64% 0 mm 0 W/m2
01:44 -6.8 °C -12.4 °C 1026 hPa Calm   8 km/h 64% 0 mm 0 W/m2
01:49 -6.9 °C -12.5 °C 1026 hPa Calm   8 km/h 64% 0 mm 0 W/m2
01:54 -6.9 °C -12.6 °C 1026 hPa NW 1 km/h 8 km/h 64% 0 mm 0 W/m2
01:59 -7 °C -12.6 °C 1026 hPa NW 3.5 km/h 8 km/h 64.4% 0 mm 0 W/m2
02:04 -7.1 °C -12.6 °C 1025.6 hPa WNW 6.6 km/h 17.7 km/h 65% 0 mm 0 W/m2
02:09 -7.1 °C -12.7 °C 1025.6 hPa NW 3.4 km/h 17.7 km/h 64.1% 0 mm 0 W/m2
02:14 -7.2 °C -12.8 °C 1025.6 hPa WNW 2.3 km/h 17.7 km/h 64% 0 mm 0 W/m2
02:19 -7.2 °C -12.8 °C 1025.6 hPa WNW 3.4 km/h 17.7 km/h 64% 0 mm 0 W/m2
02:24 -7.2 °C -12.8 °C 1025.6 hPa North 1.3 km/h 17.7 km/h 64% 0 mm 0 W/m2
02:29 -7.2 °C -12.9 °C 1025.6 hPa North 2.7 km/h 17.7 km/h 64% 0 mm 0 W/m2
02:34 -7.3 °C -12.9 °C 1025.6 hPa NNW 5.5 km/h 17.7 km/h 63.8% 0 mm 0 W/m2
02:39 -7.3 °C -13.2 °C 1025.6 hPa NNW 5.3 km/h 11.3 km/h 63% 0 mm 0 W/m2
02:44 -7.3 °C -13.2 °C 1025.3 hPa NNW 6.6 km/h 16.1 km/h 63% 0 mm 0 W/m2
02:49 -7.3 °C -13.2 °C 1025.3 hPa NNW 4.5 km/h 16.1 km/h 63% 0 mm 0 W/m2
02:54 -7.3 °C -13.2 °C 1025.6 hPa NNW 2.4 km/h 16.1 km/h 63% 0 mm 0 W/m2
02:59 -7.3 °C -13.2 °C 1025.3 hPa North 1.4 km/h 16.1 km/h 63% 0 mm 0 W/m2
03:04 -7.4 °C -13.2 °C 1025.3 hPa North 2.3 km/h 16.1 km/h 63% 0 mm 0 W/m2
03:09 -7.4 °C -13.2 °C 1025.3 hPa North 1.3 km/h 6.4 km/h 63.4% 0 mm 0 W/m2
03:14 -7.5 °C -13.3 °C 1025.6 hPa North 1 km/h 6.4 km/h 63% 0 mm 0 W/m2
03:19 -7.6 °C -13.4 °C 1025.6 hPa WNW 2.3 km/h 9.7 km/h 63% 0 mm 0 W/m2
03:24 -7.7 °C -13.4 °C 1025.6 hPa NW 3.2 km/h 9.7 km/h 63% 0 mm 0 W/m2
03:29 -7.7 °C -13.7 °C 1025.6 hPa NW 4.7 km/h 11.3 km/h 62.3% 0 mm 0 W/m2
03:34 -7.8 °C -13.7 °C 1025.6 hPa NNW 4 km/h 11.3 km/h 62.4% 0 mm 0 W/m2
03:39 -7.8 °C -13.7 °C 1026 hPa NNW 3.7 km/h 9.7 km/h 62.7% 0 mm 0 W/m2
03:44 -7.9 °C -13.9 °C 1026.3 hPa Calm   9.7 km/h 62% 0 mm 0 W/m2
03:49 -7.9 °C -13.9 °C 1026.3 hPa NNW 1.4 km/h 9.7 km/h 62% 0 mm 0 W/m2
03:54 -8.1 °C -14 °C 1026.3 hPa NNW 1.3 km/h 9.7 km/h 62% 0 mm 0 W/m2
03:59 -8.2 °C -14.1 °C 1026.3 hPa NNW 2.1 km/h 9.7 km/h 62.3% 0 mm 0 W/m2
04:04 -8.2 °C -14 °C 1026.3 hPa NNW 4.3 km/h 9.7 km/h 63% 0 mm 0 W/m2
04:09 -8.3 °C -14.1 °C 1026.3 hPa NNW 2.9 km/h 8 km/h 63% 0 mm 0 W/m2
04:14 -8.4 °C -14.2 °C 1026.3 hPa Calm   8 km/h 63% 0 mm 0 W/m2
04:19 -8.4 °C -14.2 °C 1026.3 hPa Calm   8 km/h 63% 0 mm 0 W/m2
04:24 -8.5 °C -14.3 °C 1026.3 hPa Calm   8 km/h 63% 0 mm 0 W/m2
04:29 -8.6 °C -14.3 °C 1026.3 hPa Calm   8 km/h 63.2% 0 mm 0 W/m2
04:34 -8.7 °C -14.2 °C 1026.3 hPa Calm   8 km/h 64% 0 mm 0 W/m2
04:39 -8.7 °C -14.3 °C 1026.3 hPa Calm     64% 0 mm 0 W/m2
04:44 -8.8 °C -14.3 °C 1026.6 hPa Calm     64.3% 0 mm 0 W/m2
04:49 -8.9 °C -14.3 °C 1026.6 hPa Calm     65% 0 mm 0 W/m2
04:54 -8.9 °C -14.3 °C 1026.6 hPa NNW 1.6 km/h 4.8 km/h 65% 0 mm 0 W/m2
04:59 -9.1 °C -14.4 °C 1026.6 hPa NNW 1.3 km/h 4.8 km/h 65% 0 mm 0 W/m2
05:04 -9.1 °C -14.3 °C 1026.6 hPa Calm   4.8 km/h 65.5% 0 mm 0 W/m2
05:09 -9.2 °C -14.3 °C 1026.6 hPa NNW 2.9 km/h 4.8 km/h 66% 0 mm 0 W/m2
05:14 -9.3 °C -14.4 °C 1026.6 hPa NNW 2.9 km/h 4.8 km/h 66% 0 mm 0 W/m2
05:19 -9.3 °C -14.4 °C 1026.6 hPa NNW 3.9 km/h 6.4 km/h 66.5% 0 mm 0 W/m2
05:24 -9.4 °C -14.4 °C 1026.6 hPa NNW 3.5 km/h 6.4 km/h 67% 0 mm 0 W/m2
05:29 -9.5 °C -14.5 °C 1026.6 hPa NNW 2.7 km/h 6.4 km/h 67% 0 mm 0 W/m2
05:34 -9.6 °C -14.6 °C 1026.6 hPa Calm   6.4 km/h 67% 0 mm 0 W/m2
05:39 -9.7 °C -14.7 °C 1026.6 hPa NNW 1.3 km/h 6.4 km/h 67% 0 mm 0 W/m2
05:44 -9.7 °C -14.7 °C 1027 hPa NNW 2.1 km/h 6.4 km/h 67% 0 mm 0 W/m2
05:49 -9.8 °C -14.9 °C 1027 hPa NNW 2.6 km/h 6.4 km/h 66% 0 mm 0 W/m2
05:54 -9.8 °C -14.9 °C 1027 hPa North 3.4 km/h 8 km/h 66% 0 mm 0 W/m2
05:59 -9.8 °C -15 °C 1027 hPa North 0.5 km/h 8 km/h 66% 0 mm 0 W/m2
06:04 -9.9 °C -15.1 °C 1027 hPa Calm   8 km/h 66% 0 mm 0 W/m2
06:09 -9.9 °C -15.1 °C 1027 hPa North 0.5 km/h 3.2 km/h 66% 0 mm 0 W/m2
06:14 -10 °C -15.3 °C 1027 hPa North 1.1 km/h 4.8 km/h 65.2% 0 mm 0 W/m2
06:19 -10.1 °C -15.3 °C 1027 hPa Calm   4.8 km/h 65% 0 mm 0 W/m2
06:24 -10.1 °C -15.3 °C 1027 hPa Calm   4.8 km/h 65.3% 0 mm 0 W/m2
06:29 -10.1 °C -15.3 °C 1027 hPa Calm   4.8 km/h 66% 0 mm 0 W/m2
06:34 -10.2 °C -15.3 °C 1027 hPa Calm   4.8 km/h 66.2% 0 mm 0 W/m2
06:39 -10.2 °C -15.2 °C 1027 hPa Calm     66.9% 0 mm 0 W/m2
06:44 -10.3 °C -15.3 °C 1026.6 hPa Calm     67% 0 mm 0 W/m2
06:49 -10.4 °C -15.3 °C 1027 hPa Calm     67.3% 0 mm 0 W/m2
06:54 -10.4 °C -15.3 °C 1027 hPa Calm     67.4% 0 mm 5 W/m2
06:59 -10.5 °C -15.3 °C 1027 hPa Calm     67.8% 0 mm 9 W/m2
07:04 -10.5 °C -15.3 °C 1027 hPa North 0.8 km/h 4.8 km/h 68% 0 mm 11 W/m2
07:09 -10.5 °C -15.3 °C 1027.3 hPa North 3.2 km/h 4.8 km/h 68% 0 mm 23 W/m2
07:14 -10.4 °C -15.3 °C 1027 hPa North 4.7 km/h 9.7 km/h 67.3% 0 mm 28 W/m2
07:19 -10.2 °C -15.2 °C 1027 hPa NNW 5.8 km/h 9.7 km/h 66.5% 0 mm 21 W/m2
07:24 -10 °C -15.3 °C 1027 hPa NNW 4.7 km/h 9.7 km/h 65% 0 mm 21 W/m2
07:29 -9.8 °C -15.4 °C 1027 hPa Calm   9.7 km/h 64% 0 mm 37 W/m2
07:34 -9.7 °C -15.4 °C 1027 hPa North 0.6 km/h 9.7 km/h 63.3% 0 mm 37 W/m2
07:39 -9.6 °C -15.4 °C 1027.3 hPa Calm   4.8 km/h 62.6% 0 mm 81 W/m2
07:44 -9.3 °C -15.3 °C 1027.3 hPa North 0.5 km/h 6.4 km/h 61.3% 0 mm 42 W/m2
07:49 -9 °C -15.3 °C 1027.3 hPa Calm   6.4 km/h 60% 0 mm 46 W/m2
07:54 -8.8 °C -15.3 °C 1027.3 hPa Calm   6.4 km/h 59.4% 0 mm 95 W/m2
07:59 -8.6 °C -15 °C 1027.7 hPa Calm   6.4 km/h 59.8% 0 mm 84 W/m2
08:00 -8.5 °C -15.1 °C 1027.7 hPa Calm   6.4 km/h 59% 0 mm 58 W/m2
08:09 -8.3 °C -15.3 °C 1027.7 hPa Calm     57% 0 mm 127 W/m2
08:14 -8.2 °C -15.2 °C 1027.7 hPa Calm     56.9% 0 mm 116 W/m2
08:19 -8.1 °C -15.2 °C 1027.3 hPa North 0.5 km/h 8 km/h 56.4% 0 mm 118 W/m2
08:24 -7.9 °C -14.9 °C 1027.7 hPa North 3.1 km/h 8 km/h 56.8% 0 mm 127 W/m2
08:29 -7.7 °C -15.1 °C 1027.7 hPa NNW 3.1 km/h 9.7 km/h 55.3% 0 mm 144 W/m2
08:34 -7.4 °C -15 °C 1027.3 hPa NNW 6.4 km/h 16.1 km/h 54.6% 0 mm 211 W/m2
08:39 -7.2 °C -15.2 °C 1027.3 hPa NNW 1.6 km/h 16.1 km/h 53% 0 mm 248 W/m2
08:44 -6.9 °C -15.1 °C 1027.7 hPa NNW 4.3 km/h 16.1 km/h 52.3% 0 mm 260 W/m2
08:49 -6.5 °C -14.9 °C 1027.7 hPa NNW 5 km/h 16.1 km/h 51.3% 0 mm 234 W/m2
08:54 -6.1 °C -14.7 °C 1027.7 hPa NNW 5.1 km/h 16.1 km/h 50.6% 0 mm 234 W/m2
08:59 -5.8 °C -14.9 °C 1027.7 hPa NNW 3.2 km/h 16.1 km/h 48.7% 0 mm 128 W/m2
09:04 -5.8 °C -14.9 °C 1027.7 hPa North 3.2 km/h 16.1 km/h 48.5% 0 mm 206 W/m2
09:09 -5.7 °C -14.9 °C 1027.7 hPa North 3.7 km/h 11.3 km/h 48% 0 mm 243 W/m2
09:14 -5.6 °C -14.8 °C 1027.7 hPa North 3.2 km/h 11.3 km/h 48.1% 0 mm 334 W/m2
09:19 -5.3 °C -14.6 °C 1027.7 hPa North 4.3 km/h 11.3 km/h 47.9% 0 mm 299 W/m2
09:24 -5.2 °C -14.8 °C 1027.3 hPa NNW 6.8 km/h 16.1 km/h 46.7% 0 mm 262 W/m2
09:29 -5.2 °C -14.8 °C 1027.3 hPa NNW 6 km/h 16.1 km/h 46.8% 0 mm 264 W/m2
09:34 -5.2 °C -15.1 °C 1027.3 hPa NNE 1.9 km/h 16.1 km/h 45.7% 0 mm 352 W/m2
09:39 -5.2 °C -14.8 °C 1027 hPa NE 1 km/h 11.3 km/h 46.7% 0 mm 352 W/m2
09:44 -5.1 °C -14.8 °C 1027 hPa NE 0.6 km/h 11.3 km/h 46.2% 0 mm 334 W/m2
09:49 -5.1 °C -14.9 °C 1027.3 hPa NNE 1.9 km/h 11.3 km/h 45.8% 0 mm 218 W/m2
09:54 -5.2 °C -15.3 °C 1027 hPa ENE 1.6 km/h 11.3 km/h 44.9% 0 mm 171 W/m2
09:59 -5.3 °C -15.1 °C 1027.3 hPa NNE 1.1 km/h 11.3 km/h 46.1% 0 mm 290 W/m2
10:04 -5.3 °C -15 °C 1027.3 hPa North 1.6 km/h 11.3 km/h 46.4% 0 mm 339 W/m2
10:09 -5.2 °C -15.1 °C 1027.3 hPa North 0.5 km/h 8 km/h 45.7% 0 mm 248 W/m2
10:14 -5.1 °C -15.3 °C 1027 hPa NNE 0.5 km/h 8 km/h 44.5% 0 mm 373 W/m2
10:19 -4.9 °C -14.7 °C 1027.3 hPa NNE 1.4 km/h 8 km/h 46.1% 0 mm 443 W/m2
10:24 -4.6 °C -14.4 °C 1027.3 hPa North 1.9 km/h 9.7 km/h 46.2% 0 mm 513 W/m2
10:29 -4.3 °C -14.4 °C 1027 hPa North 1 km/h 9.7 km/h 45.2% 0 mm 584 W/m2
10:34 -4 °C -14.3 °C 1027 hPa Calm   9.7 km/h 44.7% 0 mm 663 W/m2
10:39 -3.7 °C -14.1 °C 1027.3 hPa NE 0.2 km/h 1.6 km/h 44.3% 0 mm 698 W/m2
10:44 -3.4 °C -14.1 °C 1027 hPa NE 1.4 km/h 8 km/h 43.3% 0 mm 679 W/m2
10:49 -2.7 °C -12.9 °C 1027 hPa NE 0.8 km/h 8 km/h 45.1% 0 mm 631 W/m2
10:54 -2.2 °C -12.9 °C 1027 hPa NE 0.8 km/h 8 km/h 43.6% 0 mm 624 W/m2
10:59 -1.8 °C -12.8 °C 1027 hPa NE 0.3 km/h 8 km/h 42.6% 0 mm 642 W/m2
11:04 -1.8 °C -13.9 °C 1026.6 hPa East 2.3 km/h 8 km/h 39.2% 0 mm 765 W/m2
11:09 -1.9 °C -13.8 °C 1026.6 hPa ENE 2.3 km/h 8 km/h 39.7% 0 mm 765 W/m2
11:14 -2.1 °C -14 °C 1026.6 hPa NNE 1 km/h 8 km/h 39.7% 0 mm 339 W/m2
11:19 -2.3 °C -13.7 °C 1026.6 hPa NE 0.8 km/h 8 km/h 41.2% 0 mm 276 W/m2
11:24 -2.4 °C -13.9 °C 1026.6 hPa Calm   8 km/h 40.9% 0 mm 285 W/m2
11:29 -2.7 °C -14.2 °C 1026.6 hPa ENE 1.6 km/h 8 km/h 40.5% 0 mm 287 W/m2
11:34 -2.8 °C -14.3 °C 1026.6 hPa NE 0.3 km/h 8 km/h 40.9% 0 mm 295 W/m2
11:39 -2.9 °C -14.3 °C 1026.6 hPa East 2.4 km/h 6.4 km/h 41.1% 0 mm 339 W/m2
11:44 -3.1 °C -14.6 °C 1026.6 hPa ENE 3.4 km/h 9.7 km/h 40.4% 0 mm 403 W/m2
11:49 -2.9 °C -13.8 °C 1026.3 hPa NNE 1.8 km/h 9.7 km/h 42.8% 0 mm 403 W/m2
11:54 -2.7 °C -13.3 °C 1026 hPa NNE 1.3 km/h 9.7 km/h 43.8% 0 mm 339 W/m2
11:59 -2.3 °C -13.4 °C 1026 hPa NE 0.8 km/h 9.7 km/h 42.2% 0 mm 369 W/m2
12:00 -2.2 °C -13.3 °C 1026 hPa Calm   9.7 km/h 42% 0 mm 248 W/m2
12:09 -1.9 °C -13.7 °C 1025.6 hPa NE 0.6 km/h 3.2 km/h 40.1% 0 mm 211 W/m2
12:14 -1.8 °C -13.3 °C 1025.6 hPa NE 1.9 km/h 6.4 km/h 41.3% 0 mm 200 W/m2
12:19 -1.8 °C -13.5 °C 1025.3 hPa NE 1.4 km/h 8 km/h 40.3% 0 mm 213 W/m2
12:24 -2 °C -14.4 °C 1024.9 hPa NE 1.6 km/h 8 km/h 38% 0.25 mm 262 W/m2
12:29 -2.1 °C -13.6 °C 1024.9 hPa NNE 0.3 km/h 8 km/h 41% 0.25 mm 362 W/m2
12:34 -2.1 °C -13.9 °C 1024.9 hPa NNE 0.2 km/h 8 km/h 39.8% 0.25 mm 283 W/m2
12:39 -2.1 °C -14.1 °C 1024.9 hPa NE 0.5 km/h 3.2 km/h 39.4% 0.25 mm 287 W/m2
12:44 -2.1 °C -13.9 °C 1024.9 hPa East 0.6 km/h 4.8 km/h 39.9% 0.25 mm 304 W/m2
12:49 -2.2 °C -13.6 °C 1024.6 hPa East 1.1 km/h 6.4 km/h 41% 0.25 mm 285 W/m2
12:54 -2.2 °C -13.7 °C 1024.6 hPa East 1 km/h 6.4 km/h 40.9% 0.25 mm 241 W/m2
12:59 -2.2 °C -13.6 °C 1024.9 hPa East 0.6 km/h 6.4 km/h 41.1% 0.25 mm 285 W/m2
13:04 -2 °C -12.8 °C 1024.9 hPa ENE 1.3 km/h 6.4 km/h 43.5% 0.25 mm 274 W/m2
13:09 -1.9 °C -13.2 °C 1024.6 hPa ENE 0.3 km/h 6.4 km/h 41.7% 0.25 mm 290 W/m2
13:14 -1.9 °C -13.4 °C 1024.6 hPa ENE 1.1 km/h 6.4 km/h 40.9% 0.25 mm 313 W/m2
13:19 -1.9 °C -13.6 °C 1024.6 hPa ENE 2.1 km/h 6.4 km/h 40.4% 0.25 mm 299 W/m2
13:24 -2 °C -13.8 °C 1024.6 hPa ENE 1.8 km/h 6.4 km/h 40% 0.25 mm 288 W/m2
13:29 -2.1 °C -13.7 °C 1024.6 hPa ENE 1.1 km/h 6.4 km/h 40.7% 0.25 mm 253 W/m2
13:34 -2.2 °C -13.5 °C 1024.6 hPa East 1.4 km/h 6.4 km/h 41.5% 0.25 mm 253 W/m2
13:39 -2.2 °C -13.4 °C 1024.6 hPa ESE 0.3 km/h 4.8 km/h 42.1% 0 mm 246 W/m2
13:44 -2.3 °C -13.4 °C 1024.6 hPa Calm   4.8 km/h 42% 0 mm 243 W/m2
13:49 -2.3 °C -13.6 °C 1024.6 hPa ESE 0.3 km/h 4.8 km/h 41.4% 0 mm 237 W/m2
13:54 -2.3 °C -13.5 °C 1024.9 hPa ESE 0.8 km/h 4.8 km/h 42% 0 mm 239 W/m2
13:59 -2.2 °C -12.9 °C 1024.9 hPa ESE 1.3 km/h 4.8 km/h 43.5% 0 mm 232 W/m2
14:04 -2.2 °C -13.4 °C 1024.9 hPa ESE 1.3 km/h 4.8 km/h 41.7% 0 mm 232 W/m2
14:09 -2.2 °C -13.4 °C 1025.3 hPa East 1.6 km/h 6.4 km/h 41.9% 0 mm 230 W/m2
14:14 -2.3 °C -13.4 °C 1024.9 hPa East 1.1 km/h 6.4 km/h 42.2% 0 mm 211 W/m2
14:19 -2.3 °C -13.3 °C 1024.9 hPa East 1.4 km/h 6.4 km/h 42.6% 0 mm 216 W/m2
14:24 -2.3 °C -13.1 °C 1024.6 hPa East 1.8 km/h 6.4 km/h 43.1% 0 mm 227 W/m2
14:29 -2.2 °C -12.6 °C 1024.6 hPa ENE 2.1 km/h 8 km/h 44.5% 0 mm 236 W/m2
14:34 -2.1 °C -12.8 °C 1024.9 hPa ENE 1 km/h 8 km/h 43.5% 0 mm 195 W/m2
14:39 -2 °C -12.7 °C 1024.9 hPa ENE 0.3 km/h 4.8 km/h 43.8% 0 mm 167 W/m2
14:44 -1.9 °C -12.2 °C 1024.9 hPa ENE 1.1 km/h 6.4 km/h 45.3% 0 mm 165 W/m2
14:49 -1.8 °C -12.4 °C 1024.9 hPa ENE 1 km/h 6.4 km/h 44.2% 0 mm 160 W/m2
14:54 -1.8 °C -12.7 °C 1024.9 hPa ENE 0.2 km/h 6.4 km/h 43.2% 0 mm 158 W/m2
14:59 -1.9 °C -12.9 °C 1024.9 hPa ENE 0.3 km/h 6.4 km/h 42.6% 0 mm 146 W/m2
15:04 -1.9 °C -13.1 °C 1025.3 hPa ENE 1 km/h 6.4 km/h 42.1% 0 mm 135 W/m2
15:09 -2 °C -12.8 °C 1025.3 hPa ENE 1.1 km/h 4.8 km/h 43.4% 0 mm 144 W/m2
15:14 -2 °C -12.6 °C 1025.3 hPa ENE 1.8 km/h 4.8 km/h 44.1% 0 mm 153 W/m2
15:19 -2.1 °C -13.3 °C 1025.3 hPa ENE 1.1 km/h 4.8 km/h 42% 0 mm 149 W/m2
15:24 -2.2 °C -13.6 °C 1024.9 hPa ENE 1 km/h 4.8 km/h 41.3% 0 mm 104 W/m2
15:29 -2.2 °C -12.9 °C 1024.9 hPa ENE 1 km/h 6.4 km/h 43.8% 0 mm 111 W/m2
15:34 -2.2 °C -13.1 °C 1024.9 hPa East 2.6 km/h 6.4 km/h 43.1% 0 mm 114 W/m2
15:39 -2.2 °C -12.7 °C 1025.3 hPa ENE 1.1 km/h 6.4 km/h 44.4% 0 mm 114 W/m2
15:44 -2.2 °C -12.4 °C 1025.3 hPa ENE 1 km/h 6.4 km/h 45.4% 0 mm 107 W/m2
15:49 -2.2 °C -12.9 °C 1025.3 hPa ENE 2.1 km/h 8 km/h 43.3% 0 mm 100 W/m2
15:54 -2.2 °C -12.6 °C 1025.3 hPa ENE 1.3 km/h 8 km/h 44.8% 0 mm 88 W/m2
15:59 -2.2 °C -12.5 °C 1025.3 hPa ENE 2.1 km/h 8 km/h 45% 0 mm 77 W/m2
16:04 -2.1 °C -12.6 °C 1024.9 hPa Calm   8 km/h 44.5% 0 mm 67 W/m2
16:09 -2.1 °C -12.4 °C 1025.3 hPa ENE 1.1 km/h 4.8 km/h 45% 0 mm 60 W/m2
16:14 -2.1 °C -12.4 °C 1025.3 hPa NE 1.6 km/h 8 km/h 45.1% 0 mm 49 W/m2
16:19 -2.1 °C -12.4 °C 1024.9 hPa NE 0.6 km/h 8 km/h 45% 0 mm 47 W/m2
16:24 -2.2 °C -12.7 °C 1025.3 hPa NE 0.5 km/h 8 km/h 44.2% 0 mm 58 W/m2
16:29 -2.2 °C -12.4 °C 1025.3 hPa NE 0.8 km/h 8 km/h 45.5% 0 mm 58 W/m2
16:34 -2.2 °C -12.3 °C 1025.3 hPa Calm   8 km/h 46% 0 mm 37 W/m2
16:39 -2.2 °C -12.3 °C 1025.3 hPa Calm     45.9% 0 mm 28 W/m2
16:44 -2.2 °C -12.3 °C 1025.3 hPa Calm     45.9% 0 mm 23 W/m2
16:49 -2.3 °C -12.8 °C 1025.3 hPa Calm     44.3% 0 mm 18 W/m2
16:52 -2.3 °C -12.9 °C 1025.3 hPa Calm     43.8% 0 mm 14 W/m2
17:00 -2.4 °C -12.7 °C 1024.9 hPa Calm     45% 0 mm 20 W/m2
17:30 -2.6 °C -12.3 °C 1025.6 hPa Calm     47% 0 mm 2 W/m2
18:00 -2.7 °C -11.9 °C 1026 hPa Calm     49% 0 mm 0 W/m2
18:30 -2.8 °C -12.3 °C 1026 hPa Calm     48% 0 mm 0 W/m2
19:00 -2.9 °C -11.8 °C 1026 hPa Calm     50% 0 mm 0 W/m2
19:30 -2.9 °C -11.8 °C 1026 hPa Calm     50% 0 mm 0 W/m2
20:04 -3.1 °C -11.8 °C 1026 hPa Calm     51.3% 0 mm 0 W/m2
20:09 -3.2 °C -11.5 °C 1025.3 hPa Calm     52.6% 0 mm 0 W/m2
20:14 -3.3 °C -11.3 °C 1025.6 hPa Calm     54% 0 mm 0 W/m2
20:19 -3.3 °C -11.3 °C 1025.3 hPa Calm     54% 0 mm 0 W/m2
20:24 -3.4 °C -11.4 °C 1025.3 hPa Calm     54% 0 mm 0 W/m2
20:29 -3.5 °C -11.5 °C 1025.6 hPa Calm     54% 0 mm 0 W/m2
20:34 -3.6 °C -11.7 °C 1025.6 hPa Calm     53.5% 0 mm 0 W/m2
20:39 -3.6 °C -11.9 °C 1025.6 hPa Calm     52.4% 0 mm 0 W/m2
20:44 -3.7 °C -12.3 °C 1025.6 hPa Calm     51.1% 0 mm 0 W/m2
20:49 -3.7 °C -12.2 °C 1026 hPa Calm     51.3% 0 mm 0 W/m2
20:54 -3.7 °C -12.3 °C 1025.6 hPa Calm     51% 0 mm 0 W/m2
20:59 -3.7 °C -12.1 °C 1025.6 hPa Calm     52% 0 mm 0 W/m2
21:04 -3.6 °C -12.1 °C 1025.6 hPa Calm     51.8% 0 mm 0 W/m2
21:09 -3.6 °C -12.3 °C 1025.6 hPa Calm     50.6% 0 mm 0 W/m2
21:14 -3.6 °C -12.2 °C 1026 hPa NE 0.2 km/h 1.6 km/h 51% 0 mm 0 W/m2
21:19 -3.5 °C -12.3 °C 1026 hPa NE 0.2 km/h 1.6 km/h 50.5% 0 mm 0 W/m2
21:24 -3.4 °C -12.4 °C 1026 hPa Calm   1.6 km/h 49.8% 0 mm 0 W/m2
21:29 -3.4 °C -11.9 °C 1026 hPa NE 0.3 km/h 3.2 km/h 51.5% 0 mm 0 W/m2
21:34 -3.4 °C -11.9 °C 1026.3 hPa NE 0.8 km/h 3.2 km/h 51.8% 0 mm 0 W/m2
21:39 -3.3 °C -12.2 °C 1026 hPa NE 0.2 km/h 3.2 km/h 50.2% 0 mm 0 W/m2
21:44 -3.3 °C -12.4 °C 1026 hPa NE 0.5 km/h 3.2 km/h 49.6% 0 mm 0 W/m2
21:49 -3.3 °C -12.4 °C 1026.3 hPa Calm   3.2 km/h 49.3% 0 mm 0 W/m2
21:54 -3.3 °C -12.4 °C 1026.3 hPa NE 0.3 km/h 3.2 km/h 49.4% 0 mm 0 W/m2
21:59 -3.3 °C -12.5 °C 1026.3 hPa Calm   3.2 km/h 49% 0 mm 0 W/m2
22:04 -3.3 °C -12.7 °C 1026 hPa Calm   3.2 km/h 48.1% 0 mm 0 W/m2
22:09 -3.4 °C -12.6 °C 1026.3 hPa Calm     48.7% 0 mm 0 W/m2
22:14 -3.4 °C -12.6 °C 1026.3 hPa Calm   1.6 km/h 49% 0 mm 0 W/m2
22:19 -3.3 °C -12.6 °C 1026.3 hPa NE 0.3 km/h 3.2 km/h 48.6% 0 mm 0 W/m2
22:24 -3.3 °C -12.7 °C 1026.3 hPa Calm   3.2 km/h 48.4% 0 mm 0 W/m2
22:29 -3.3 °C -12.4 °C 1026.3 hPa Calm   3.2 km/h 49.6% 0 mm 0 W/m2
22:34 -3.4 °C -12.6 °C 1026 hPa Calm   3.2 km/h 49.1% 0 mm 0 W/m2
22:39 -3.4 °C -12.8 °C 1026 hPa Calm   1.6 km/h 48.3% 0 mm 0 W/m2
22:44 -3.4 °C -12.9 °C 1026 hPa NE 1.6 km/h 4.8 km/h 48% 0 mm 0 W/m2
22:49 -3.4 °C -12.9 °C 1026 hPa NE 1 km/h 6.4 km/h 48% 0 mm 0 W/m2
22:54 -3.4 °C -12.7 °C 1026.3 hPa NE 0.8 km/h 6.4 km/h 48.6% 0 mm 0 W/m2
22:59 -3.4 °C -12.8 °C 1026.3 hPa NNE 1.3 km/h 6.4 km/h 48% 0 mm 0 W/m2
23:04 -3.4 °C -12.9 °C 1026.6 hPa Calm     48% 0 mm 0 W/m2
23:09 -3.4 °C -12.5 °C 1026.6 hPa NNE 0.2 km/h 3.2 km/h 49.4% 0 mm 0 W/m2
23:14 -3.4 °C -12.4 °C 1026.6 hPa NNE 0.2 km/h 3.2 km/h 50% 0 mm 0 W/m2
23:19 -3.5 °C -12.4 °C 1026.3 hPa Calm   3.2 km/h 50% 0 mm 0 W/m2
23:24 -3.6 °C -12.3 °C 1026.3 hPa Calm   3.2 km/h 50.5% 0 mm 0 W/m2
23:29 -3.6 °C -12.3 °C 1026.3 hPa Calm   3.2 km/h 50.6% 0 mm 0 W/m2
23:34 -3.6 °C -12.4 °C 1026.3 hPa Calm   3.2 km/h 50% 0 mm 0 W/m2
23:39 -3.6 °C -12.6 °C 1026.3 hPa Calm     49.8% 0 mm 0 W/m2
23:44 -3.6 °C -12.3 °C 1026.6 hPa Calm     50.6% 0 mm 0 W/m2
23:49 -3.6 °C -12.6 °C 1026.6 hPa Calm   3.2 km/h 49.8% 0 mm 0 W/m2
23:54 -3.6 °C -12.7 °C 1026.6 hPa Calm   3.2 km/h 49.3% 0 mm 0 W/m2
23:59 -3.6 °C -12.7 °C 1027 hPa Calm   3.2 km/h 49% 0 mm 0 W/m2
Hartford County Weather
Compliments of Weather Underground - 2 mb